Temp
57 57 57 57 58 57 56 56 56 57 56 57 57 57 57 57 57 57 56 61 63 66 69 72 73 74 74 73 71 70 70 70 70 70 69 68 67 67 68 68 68 69 69
58 58 58 57 56 55 55 55 55 55 54 55 56 56 56 56 56 56 56 55 60 62 64 66 67 69 70 71 71 70 70 69 69 69 69 68 67 67 67 67 68 68 69
58 56 56 55 55 54 54 54 54 53 53 54 54 54 55 54 54 55 54 55 55 58 60 62 63 64 65 66 68 69 70 69 68 69 68 67 67 66 66 66 66 67 69
57 55 54 53 53 53 52 52 51 51 50 50 50 51 51 53 53 53 53 53 53 55 56 59 60 61 62 63 65 66 68 69 69 69 68 67 67 66 66 66 66 66 66
56 54 52 52 52 51 50 50 50 49 49 48 52 51 50 50 50 54 52 51 51 51 52 55 57 57 59 61 63 64 66 67 69 70 69 68 67 66 66 65 66 66 66
57 56 53 51 50 49 48 48 48 48 48 47 52 51 48 49 48 48 48 52 50 50 51 52 51 52 55 58 60 62 64 66 67 69 70 69 68 67 66 65 65 65 65
52 50 49 49 48 47 46 47 46 46 46 45 44 46 46 47 47 47 47 47 48 49 49 50 51 51 52 54 56 59 62 64 65 66 68 69 68 66 65 64 64 64 65
51 51 48 47 47 46 45 44 43 44 44 43 41 41 39 43 45 47 46 46 43 45 48 49 48 49 50 49 51 56 57 59 62 63 64 65 66 66 65 65 64 65 64
49 48 48 46 45 44 43 42 42 42 40 41 41 40 36 34 37 42 43 43 42 43 43 44 47 48 49 47 49 50 53 53 57 60 62 64 64 66 65 64 64 64 64
48 48 47 45 44 43 42 42 43 41 41 37 40 43 40 38 35 35 42 42 41 43 41 41 43 44 46 46 48 49 50 51 53 57 60 62 64 65 65 64 64 64 64
47 47 46 44 43 42 41 41 39 39 39 37 37 36 37 37 37 35 32 36 42 41 41 41 41 41 44 44 44 47 50 50 51 54 57 59 61 64 63 63 63 63 64
45 45 45 42 41 41 40 39 39 38 37 36 36 36 35 34 33 33 31 32 34 38 39 40 40 41 41 42 46 48 48 48 50 52 54 56 57 58 59 60 61 61 62
44 42 41 41 40 41 42 40 38 37 36 35 34 35 35 34 35 34 32 31 31 33 34 37 39 41 43 41 42 46 47 47 48 50 52 53 54 55 56 57 57 58 59
41 41 41 41 41 44 41 42 40 36 36 34 34 33 33 33 34 33 32 30 27 30 31 33 37 40 39 41 43 46 43 46 47 48 49 51 52 52 52 54 55 56 56
43 40 40 42 42 40 40 39 37 39 36 35 34 34 32 33 32 31 32 31 28 24 27 32 32 38 40 41 43 42 40 44 47 46 46 47 48 49 51 52 52 53 55
42 43 41 42 42 41 42 40 36 36 35 34 34 33 32 32 31 31 30 30 30 27 24 32 34 37 40 43 45 43 41 44 44 45 45 45 45 46 48 49 50 51 52
41 41 42 42 39 39 38 36 35 35 34 33 32 32 32 31 30 30 29 29 29 28 25 29 34 37 36 38 41 42 42 41 40 44 45 44 43 43 44 46 47 49 51
39 41 40 39 38 37 36 35 34 34 33 32 32 31 31 34 29 29 28 28 28 29 27 25 30 32 34 37 38 39 41 43 39 44 43 43 43 43 43 43 44 46 47
38 38 39 37 37 36 35 34 33 33 32 31 31 30 30 29 27 27 27 27 28 30 30 28 28 31 33 34 35 38 38 38 41 43 42 41 42 42 42 43 44 45 46
37 39 37 36 36 36 35 34 33 31 31 31 31 30 29 29 28 27 28 28 29 27 28 29 28 28 30 34 32 32 32 35 35 40 40 39 40 41 41 41 42 44 44
40 36 35 35 34 35 35 32 32 31 30 29 29 30 30 31 34 33 31 28 27 27 27 27 27 29 28 28 29 30 30 31 32 34 34 36 37 37 39 40 42 44 44
37 34 33 33 32 35 36 36 35 30 30 29 29 28 28 30 30 31 30 31 30 27 25 25 26 26 28 28 28 29 28 27 28 33 32 32 35 36 37 38 41 42 42
34 33 32 32 30 30 35 35 32 28 27 26 26 26 26 30 28 27 28 30 30 30 30 27 25 26 27 29 30 27 26 26 27 31 32 30 32 32 36 39 40 42 42
33 31 30 29 29 32 34 32 31 26 26 26 25 25 25 25 26 28 27 27 28 29 30 30 29 28 29 29 30 30 29 28 28 29 31 26 30 30 34 35 38 41 41
31 30 30 28 28 27 33 32 29 24 24 24 26 26 26 25 28 30 27 25 26 28 32 32 32 32 32 32 31 28 25 25 25 28 29 29 29 28 28 32 34 38 40
31 30 29 27 30 25 30 31 29 21 17 22 24 25 26 27 29 30 26 24 22 26 27 28 28 29 29 29 30 30 28 25 25 24 29 27 28 28 26 28 29 31 32
MSLP
1022.28 1022.22 1022.23 1022.02 1022.13 1022.34 1022.40 1022.28 1022.00 1021.87 1021.83 1021.76 1021.69 1021.71 1021.65 1021.49 1021.20 1020.81 1020.48 1020.14 1019.86 1019.63 1019.39 1019.11 1018.84 1018.60 1018.52 1018.56 1018.66 1018.75 1018.83 1018.93 1018.96 1018.72 1018.52 1018.55 1018.38 1018.49 1018.21 1018.06 1017.88 1018.13 1018.50
1022.08 1022.15 1022.20 1022.45 1022.58 1022.50 1022.47 1022.36 1022.23 1022.17 1022.09 1022.00 1021.95 1021.93 1021.87 1021.69 1021.35 1021.02 1020.67 1020.30 1020.03 1019.77 1019.68 1019.35 1019.08 1018.84 1018.52 1018.27 1018.33 1018.41 1018.35 1018.28 1018.17 1018.07 1018.01 1017.93 1017.98 1018.07 1017.89 1017.78 1017.80 1017.77 1017.82
1022.26 1022.57 1022.65 1022.76 1022.77 1022.63 1022.55 1022.47 1022.48 1022.50 1022.56 1022.38 1022.31 1022.14 1021.90 1021.59 1021.33 1021.12 1020.92 1020.77 1020.63 1020.44 1020.25 1019.81 1019.49 1019.09 1018.85 1018.49 1018.20 1018.09 1018.04 1017.99 1017.91 1017.69 1017.51 1017.70 1017.74 1017.74 1017.72 1017.75 1017.71 1017.81 1017.42
1022.77 1022.92 1022.98 1023.08 1023.07 1022.90 1022.84 1022.82 1022.96 1022.93 1022.92 1022.77 1022.60 1022.45 1022.25 1021.78 1021.59 1021.43 1021.35 1021.29 1021.21 1021.05 1020.87 1020.56 1020.05 1019.50 1019.12 1018.85 1018.33 1017.99 1017.84 1017.73 1017.58 1017.61 1017.66 1017.66 1017.73 1017.61 1017.28 1017.30 1017.46 1017.45 1017.36
1022.77 1022.77 1023.07 1023.26 1023.24 1023.26 1023.28 1023.27 1023.38 1023.25 1023.20 1023.00 1022.72 1022.53 1022.35 1022.06 1021.93 1021.59 1021.64 1021.62 1021.67 1021.59 1021.42 1021.04 1020.62 1020.18 1019.56 1018.95 1018.57 1018.19 1017.71 1017.43 1017.23 1017.00 1017.00 1017.06 1017.20 1017.23 1017.35 1017.35 1017.35 1017.11 1017.11
1023.00 1023.10 1023.40 1023.50 1023.49 1023.47 1023.66 1023.58 1023.53 1023.40 1023.39 1023.41 1022.95 1022.67 1022.28 1021.96 1022.04 1022.03 1022.03 1021.88 1021.83 1021.75 1021.57 1021.33 1021.02 1020.61 1020.12 1019.50 1018.84 1018.34 1017.95 1017.33 1016.88 1016.65 1016.41 1016.36 1016.32 1016.25 1016.36 1016.64 1016.76 1017.00 1016.90
1023.74 1023.69 1023.83 1023.77 1023.71 1023.93 1024.16 1024.00 1023.86 1023.89 1023.72 1023.57 1023.31 1022.91 1022.38 1022.12 1022.06 1022.13 1022.23 1022.29 1022.16 1021.99 1021.77 1021.45 1021.22 1020.85 1020.33 1019.79 1019.22 1018.56 1017.89 1017.49 1017.05 1016.59 1016.22 1016.17 1016.07 1016.16 1016.19 1016.30 1016.54 1016.83 1016.82
1024.21 1024.12 1024.07 1024.05 1024.01 1024.08 1024.20 1024.06 1024.08 1024.27 1024.22 1024.07 1024.16 1023.81 1023.19 1022.71 1022.31 1022.00 1022.13 1022.34 1022.56 1022.32 1021.87 1021.43 1021.16 1020.70 1020.31 1019.99 1019.38 1018.61 1018.15 1017.62 1017.11 1016.69 1016.26 1016.04 1015.97 1015.91 1016.13 1016.43 1016.62 1016.75 1016.48
1024.39 1024.18 1024.08 1024.09 1024.12 1023.99 1024.00 1024.07 1023.98 1023.96 1024.37 1024.44 1024.48 1024.53 1024.21 1023.85 1023.48 1022.65 1022.31 1022.49 1022.50 1022.41 1022.18 1021.96 1021.39 1020.82 1020.27 1019.80 1019.35 1018.73 1017.98 1017.63 1017.23 1016.64 1016.09 1015.72 1015.61 1015.51 1015.80 1015.97 1016.22 1016.16 1016.28
1024.40 1024.10 1024.04 1024.18 1024.25 1024.42 1024.28 1024.21 1024.27 1024.32 1024.45 1024.83 1024.71 1024.52 1024.60 1024.69 1024.30 1023.33 1022.90 1022.68 1022.59 1022.42 1022.29 1022.15 1021.76 1021.05 1020.33 1019.87 1019.28 1018.64 1018.01 1017.36 1016.87 1016.44 1015.93 1015.35 1015.13 1015.02 1015.26 1015.39 1015.61 1015.84 1015.91
1024.20 1024.43 1024.30 1024.22 1024.35 1024.57 1024.56 1024.51 1024.41 1024.49 1024.74 1025.01 1025.13 1025.01 1024.82 1024.66 1024.49 1024.48 1023.51 1023.24 1022.87 1022.47 1022.25 1021.90 1021.55 1021.12 1020.37 1019.80 1019.29 1018.50 1017.80 1017.20 1016.72 1016.23 1015.77 1015.19 1014.87 1014.40 1014.93 1015.03 1015.12 1015.18 1015.27
1024.41 1024.29 1024.36 1024.65 1024.94 1025.08 1025.13 1025.16 1025.05 1024.82 1024.94 1024.96 1025.14 1025.11 1025.22 1025.19 1024.86 1024.61 1024.37 1024.01 1023.46 1022.36 1022.32 1022.16 1021.51 1020.90 1020.33 1019.72 1018.96 1018.22 1017.47 1016.86 1016.34 1016.05 1015.79 1015.23 1014.88 1014.86 1014.93 1014.99 1015.12 1015.14 1015.17
1024.38 1024.47 1024.76 1024.98 1025.04 1025.10 1025.11 1025.05 1025.14 1025.34 1025.30 1024.94 1025.00 1025.12 1024.99 1025.02 1024.82 1024.63 1024.45 1024.02 1023.66 1023.02 1022.36 1022.03 1021.41 1020.68 1020.09 1019.54 1018.83 1018.01 1017.17 1016.52 1015.95 1015.61 1015.59 1015.49 1015.25 1014.99 1014.93 1015.13 1015.07 1015.13 1015.20
1024.36 1024.27 1024.37 1024.47 1024.35 1024.26 1024.46 1024.61 1024.80 1024.93 1025.07 1024.86 1024.87 1024.89 1024.88 1024.75 1024.64 1024.62 1024.43 1024.17 1023.55 1023.17 1022.58 1021.87 1021.27 1020.55 1019.87 1019.33 1018.60 1017.89 1017.19 1016.37 1015.71 1015.39 1015.22 1015.13 1015.11 1015.10 1014.66 1015.14 1015.16 1015.25 1015.23
1023.74 1023.90 1024.20 1024.30 1024.57 1024.39 1024.82 1024.83 1025.01 1024.68 1024.65 1024.53 1024.65 1024.64 1024.84 1024.58 1024.70 1024.62 1024.37 1024.45 1024.36 1023.06 1021.97 1021.47 1021.14 1020.39 1019.64 1019.03 1018.29 1017.93 1017.41 1016.50 1015.81 1015.28 1015.12 1014.98 1015.09 1014.94 1014.87 1014.89 1015.07 1015.21 1015.29
1023.85 1023.97 1024.17 1024.24 1024.66 1024.45 1024.11 1024.37 1024.45 1024.34 1024.51 1024.62 1024.56 1024.57 1024.71 1024.60 1024.53 1024.34 1024.37 1024.24 1024.03 1023.64 1022.32 1021.54 1020.59 1020.07 1019.40 1018.63 1018.02 1017.84 1017.59 1016.88 1016.11 1015.52 1015.14 1014.92 1014.78 1014.74 1014.85 1014.79 1015.11 1014.91 1015.30
1023.66 1023.81 1023.92 1023.95 1024.29 1024.03 1024.11 1024.38 1024.36 1024.32 1024.39 1024.41 1024.45 1024.46 1024.48 1024.42 1024.28 1024.18 1024.15 1023.92 1023.65 1023.34 1022.45 1021.14 1020.54 1019.62 1019.09 1018.38 1017.84 1017.60 1017.47 1017.15 1016.61 1015.75 1015.29 1015.13 1014.71 1014.55 1014.80 1014.91 1014.87 1014.80 1015.07
1023.74 1023.51 1023.70 1023.93 1023.94 1023.77 1023.91 1024.12 1024.06 1024.06 1024.19 1024.30 1024.25 1024.26 1024.16 1024.03 1024.03 1023.95 1023.88 1023.68 1023.28 1022.77 1022.33 1021.10 1020.14 1019.35 1018.74 1017.75 1017.45 1017.58 1017.33 1017.15 1016.96 1016.06 1015.53 1015.22 1014.78 1014.44 1014.54 1014.90 1014.95 1014.72 1015.12
1023.99 1023.93 1023.70 1023.62 1023.51 1023.56 1023.73 1023.67 1023.70 1023.86 1024.08 1024.06 1024.06 1023.96 1023.87 1023.88 1023.79 1023.64 1023.49 1023.18 1022.71 1022.10 1021.60 1020.86 1019.75 1019.22 1018.45 1017.89 1017.38 1017.09 1017.25 1017.05 1016.95 1016.49 1015.95 1015.51 1015.13 1014.67 1014.24 1014.32 1014.61 1014.88 1014.67
1024.05 1023.71 1023.46 1023.32 1023.13 1023.28 1023.53 1023.52 1023.68 1023.82 1023.90 1023.94 1023.91 1023.84 1023.72 1023.60 1023.39 1023.11 1022.81 1022.51 1022.08 1021.69 1021.10 1020.49 1019.78 1019.07 1018.42 1017.67 1017.45 1017.33 1017.16 1017.02 1016.81 1016.42 1016.31 1015.83 1015.54 1015.23 1014.48 1014.61 1014.51 1014.37 1014.52
1023.83 1023.47 1023.31 1023.06 1023.07 1023.28 1023.42 1023.57 1023.69 1023.77 1023.92 1023.91 1023.85 1023.72 1023.46 1023.18 1022.61 1022.36 1022.08 1021.89 1021.70 1021.14 1020.62 1019.98 1019.39 1018.84 1018.44 1018.05 1017.54 1017.44 1017.21 1016.90 1016.69 1016.52 1016.33 1016.02 1015.71 1015.57 1015.19 1014.47 1015.06 1014.49 1014.34
1023.63 1023.43 1023.34 1023.13 1023.32 1023.53 1023.48 1023.47 1023.54 1023.84 1023.91 1023.88 1023.76 1023.62 1023.37 1022.90 1022.53 1022.12 1021.94 1021.44 1021.06 1020.55 1020.11 1019.67 1019.14 1018.78 1018.22 1018.11 1017.90 1017.78 1017.61 1017.29 1016.92 1016.55 1016.45 1016.26 1016.02 1015.67 1015.62 1015.35 1015.28 1014.81 1014.55
1023.64 1023.47 1023.57 1023.74 1023.71 1023.70 1023.63 1023.67 1023.94 1024.08 1024.11 1024.10 1023.90 1023.61 1023.18 1022.65 1022.52 1022.07 1021.50 1020.90 1020.37 1019.88 1019.42 1019.08 1018.72 1018.44 1018.01 1017.80 1017.70 1017.69 1017.62 1017.41 1017.08 1016.75 1016.72 1016.33 1016.23 1016.04 1015.71 1015.57 1015.22 1015.24 1015.04
1023.50 1023.49 1023.71 1024.04 1023.89 1023.86 1023.87 1023.99 1023.99 1024.20 1024.26 1024.12 1023.86 1023.55 1023.13 1022.68 1022.21 1021.58 1020.90 1020.25 1019.88 1019.28 1018.90 1018.70 1018.39 1018.10 1017.85 1017.66 1017.48 1017.19 1017.17 1017.17 1017.06 1016.77 1016.84 1016.57 1016.24 1015.97 1015.73 1015.59 1015.39 1015.21 1015.33
1023.41 1023.53 1023.78 1023.99 1024.06 1024.18 1024.03 1023.99 1024.11 1024.28 1024.30 1024.05 1023.72 1023.39 1022.85 1022.44 1021.90 1021.18 1020.56 1019.98 1019.39 1018.74 1018.26 1018.00 1017.69 1017.43 1017.20 1016.99 1016.95 1016.72 1016.74 1016.84 1016.63 1016.44 1016.53 1016.57 1016.21 1016.05 1015.83 1015.44 1015.23 1015.09 1015.04
1023.28 1023.57 1023.99 1024.13 1024.25 1024.37 1024.25 1024.17 1024.21 1024.25 1024.27 1023.90 1023.52 1023.09 1022.72 1022.21 1021.48 1020.79 1020.39 1020.05 1019.41 1018.63 1018.26 1017.77 1017.51 1017.15 1016.84 1016.58 1016.35 1016.30 1016.28 1016.12 1016.22 1016.12 1015.97 1016.28 1015.98 1015.97 1015.75 1015.36 1015.17 1015.10 1015.24
Wind_Speed
1 0 0 1 3 4 4 4 4 3 3 4 4 4 5 5 6 4 3 12 12 15 18 20 20 21 18 13 10 10 11 12 13 12 9 8 7 10 9 10 11 13 16
3 2 3 5 4 3 4 4 3 4 4 4 5 5 5 5 6 6 5 6 15 17 18 18 19 20 22 23 18 11 12 12 12 14 11 9 8 6 8 10 12 14 14
6 5 4 4 3 3 5 4 4 4 4 4 5 5 5 5 5 6 5 5 8 16 19 20 21 20 19 20 21 19 14 11 13 14 13 10 9 8 7 8 9 13 15
6 4 4 4 4 4 4 4 4 3 3 4 4 4 5 5 6 5 5 5 5 6 10 20 21 22 22 21 19 19 19 17 13 14 13 11 9 8 6 6 8 9 10
5 5 4 4 4 4 5 3 3 3 3 4 5 4 5 4 4 4 5 6 6 6 5 14 18 20 22 22 22 21 20 20 18 15 15 14 11 8 6 5 5 7 9
7 5 4 5 4 4 4 3 4 3 1 2 4 3 4 2 2 4 4 5 5 6 7 9 8 9 18 20 20 21 20 20 19 19 16 15 13 10 5 4 5 7 8
6 6 4 4 5 5 4 5 3 5 3 5 2 4 3 2 5 3 3 3 4 4 5 7 7 6 9 20 17 19 20 20 19 19 19 15 13 9 7 5 6 6 7
5 4 4 4 5 4 5 5 5 1 2 4 2 2 3 4 4 3 3 3 5 3 8 10 10 8 8 7 13 22 17 18 19 18 17 18 14 13 10 8 6 7 7
5 5 5 4 4 3 4 3 3 5 2 2 4 1 4 3 3 3 5 3 6 4 7 8 10 9 12 8 11 14 18 15 18 19 18 17 16 12 12 8 7 7 7
2 2 3 3 4 3 4 3 3 3 3 3 2 2 1 2 3 4 1 5 4 9 5 6 8 9 10 7 14 17 18 17 15 18 16 15 16 13 12 9 7 6 7
1 1 2 4 4 2 3 4 3 5 2 1 0 2 2 2 2 3 7 5 6 3 4 8 6 7 9 7 7 10 20 19 13 16 16 6 9 8 7 6 6 4 6
2 3 1 3 4 4 4 3 3 4 3 3 1 2 0 1 3 1 3 4 7 5 6 5 7 7 6 6 12 20 20 17 13 11 11 3 4 4 2 1 1 2 5
3 2 3 3 3 2 3 3 4 2 0 1 1 1 1 2 2 2 2 3 4 5 4 4 5 7 6 6 8 19 20 17 13 9 10 8 0 6 6 4 4 3 2
4 5 5 4 5 1 2 3 2 2 3 2 4 2 2 3 2 2 2 2 7 4 4 6 3 7 5 6 11 20 11 15 5 8 13 9 9 6 6 3 4 3 5
3 4 5 3 4 4 4 4 4 4 3 3 4 4 3 3 2 3 2 1 3 9 11 5 5 5 8 6 9 8 10 14 7 4 6 6 6 7 6 5 1 5 3
1 5 4 5 4 4 7 4 4 5 4 3 3 3 2 2 3 3 3 3 4 7 10 6 8 7 9 9 6 9 10 16 13 4 1 3 8 10 8 6 7 5 6
2 4 5 5 6 5 5 5 5 4 4 3 1 1 4 4 4 3 3 4 6 6 10 10 9 10 11 11 5 2 10 8 7 13 5 2 5 8 8 8 10 7 9
4 6 3 3 6 6 5 5 5 3 3 3 3 4 5 5 5 4 4 6 7 8 8 14 11 10 11 6 4 3 5 8 7 12 13 5 6 7 9 7 9 7 7
4 4 5 6 5 5 6 5 4 3 2 4 5 5 5 5 5 4 6 7 7 8 9 7 9 8 8 5 4 4 4 3 3 9 9 11 10 8 12 13 9 9 10
6 5 5 6 4 4 5 2 1 3 4 4 5 5 5 6 7 7 8 7 7 7 9 8 7 7 7 7 2 3 3 1 2 2 4 5 9 11 14 13 13 10 7
5 6 6 5 3 2 0 1 2 3 5 5 5 6 6 10 18 16 9 9 10 8 7 8 7 7 6 4 2 1 2 2 2 1 1 2 2 4 6 11 7 3 7
6 5 4 3 5 3 6 5 5 4 4 5 8 7 7 13 12 18 20 21 17 11 10 8 7 8 9 6 3 3 2 1 2 0 1 2 3 1 3 2 5 6 6
5 2 4 4 5 5 10 9 9 4 5 5 7 8 10 8 13 10 15 20 18 16 14 8 8 8 8 6 7 7 4 3 3 2 2 3 1 2 3 4 1 4 6
5 3 4 3 4 4 8 7 8 4 5 6 7 7 9 10 9 13 12 10 10 10 9 7 7 8 8 9 8 7 6 4 3 4 1 3 0 2 2 3 8 6 5
1 3 4 4 5 4 7 8 7 3 5 7 8 8 9 9 15 20 11 11 11 10 9 15 14 15 16 16 12 4 6 7 6 7 3 4 3 3 2 4 4 9 10
3 4 4 4 6 3 7 8 6 1 3 5 6 8 12 12 19 18 10 7 9 8 9 9 7 9 10 10 14 8 6 3 4 3 4 5 3 2 2 2 2 3 2
Wind_Direction
21 40 251 65 30 2 1 341 348 1 5 1 11 360 356 348 341 328 314 313 303 308 307 307 305 306 303 290 266 260 262 268 270 273 273 285 298 297 312 291 257 230 216
151 148 57 36 22 12 350 348 1 17 24 14 19 20 13 13 0 352 341 341 351 355 348 343 334 323 310 307 310 281 271 272 279 284 282 281 289 295 303 307 298 262 227
59 51 45 25 4 1 4 11 16 26 23 16 14 6 4 5 9 24 23 24 16 23 25 23 12 360 345 328 317 312 303 275 282 285 292 286 280 288 294 297 307 296 275
49 48 38 24 10 43 40 33 24 11 32 23 350 340 351 1 7 43 42 35 24 22 14 16 14 14 11 3 345 327 309 301 267 268 272 277 270 271 285 287 303 318 318
53 70 64 57 56 60 44 34 39 37 17 1 334 336 331 343 9 48 46 40 32 24 12 11 7 3 356 353 353 348 328 310 292 282 264 268 260 250 254 266 287 314 325
40 59 55 48 46 56 37 30 38 12 46 337 304 319 293 342 69 66 50 40 32 24 15 7 356 345 343 340 339 338 336 324 307 290 282 263 254 263 251 287 300 300 310
39 45 52 48 43 54 46 29 6 16 354 345 358 323 312 68 88 64 55 53 27 8 6 359 350 340 332 329 326 327 329 328 321 307 300 290 247 233 222 256 282 290 303
31 63 67 55 54 74 51 55 66 19 352 28 355 288 330 329 340 9 31 36 12 337 353 348 336 325 330 317 317 322 321 322 320 313 293 293 283 225 209 217 248 266 291
32 45 58 84 89 114 112 92 85 78 76 341 47 51 339 291 339 318 357 1 348 355 344 330 319 313 323 316 322 316 317 312 312 310 303 284 286 238 212 215 240 259 268
65 154 136 114 98 61 76 95 78 83 105 51 327 34 143 200 284 303 343 338 331 336 318 311 309 303 306 306 314 314 314 307 302 305 300 296 264 264 224 219 225 253 261
271 65 138 135 126 114 88 89 82 64 62 113 69 332 327 302 299 332 308 330 319 300 315 317 295 297 303 306 307 305 313 310 285 300 292 301 316 255 211 217 228 261 269
254 224 185 96 90 68 44 25 39 79 83 92 62 32 21 292 283 281 285 305 300 323 321 308 309 309 298 303 310 312 309 303 281 277 295 245 104 57 79 139 176 246 313
317 237 104 104 74 59 22 23 23 7 16 110 159 238 232 258 261 254 262 268 292 301 285 286 298 306 303 308 312 316 307 300 282 275 281 266 295 119 79 65 75 77 41
282 162 155 150 121 120 251 251 237 222 216 226 251 249 251 257 238 232 257 333 306 278 289 277 268 290 292 307 315 325 322 305 302 295 269 284 282 220 148 115 65 79 88
234 184 124 106 336 0 323 285 269 274 268 250 260 273 271 297 305 308 305 270 267 305 300 295 282 278 297 294 315 326 323 308 316 41 62 37 340 309 243 189 203 334 356
274 148 170 40 359 246 239 234 243 250 262 294 261 265 280 282 298 296 288 271 263 277 287 294 283 271 283 289 278 313 330 344 324 278 105 67 40 10 296 284 233 224 273
184 148 141 156 239 276 290 258 266 282 268 261 259 290 295 286 289 296 287 291 285 278 281 288 282 283 282 267 269 259 310 329 330 349 300 105 67 50 2 277 280 242 211
175 191 217 247 280 265 264 251 269 269 240 271 275 281 283 309 299 286 284 285 279 278 277 280 277 278 278 234 218 255 240 306 328 3 14 27 48 50 8 301 247 232 217
300 309 264 260 285 273 258 245 232 222 234 250 270 298 294 297 287 277 280 280 280 283 285 287 290 280 274 274 265 242 229 212 290 342 13 17 23 54 40 337 278 231 184
290 291 290 283 277 271 276 268 171 234 270 298 313 300 291 284 284 282 283 282 285 293 293 286 293 301 281 269 220 239 248 216 281 298 328 33 20 31 63 28 300 247 173
284 290 294 305 328 309 312 220 261 325 320 316 312 308 301 298 304 306 303 304 295 281 287 286 280 289 304 308 260 300 269 309 282 259 290 311 31 1 4 51 320 251 199
308 337 346 358 54 39 27 20 359 331 322 325 326 320 311 309 301 314 309 303 299 291 281 285 284 278 278 295 310 310 299 300 294 27 13 314 329 8 345 354 347 55 76
288 22 47 50 72 49 43 31 34 24 1 338 324 317 313 317 317 300 297 297 299 296 296 293 303 288 274 258 268 268 244 254 248 287 299 285 271 302 300 288 15 356 91
305 8 95 106 87 53 37 33 6 6 346 318 312 305 312 305 304 307 300 313 309 297 278 270 269 276 276 277 261 255 256 254 279 271 230 271 227 251 273 246 271 229 221
254 158 151 122 85 44 25 8 2 335 319 311 311 315 309 318 310 317 323 305 313 300 284 284 287 287 288 286 273 238 228 240 255 259 203 233 234 253 253 258 254 245 226
189 131 111 110 97 69 18 0 358 288 290 304 308 315 319 324 321 329 330 335 310 323 321 305 284 281 279 279 278 266 265 255 228 215 216 207 196 204 271 242 275 260 289